0 HST 1 20580U 90037B 25282.30347363 .00008699 00000-0 31254-3 0 9992 2 20580 28.4701 350.6689 0001925 230.5535 129.4890 15.26813916750137 0 ISS (ZARYA) 1 25544U 98067A 25281.98017350 .00012532 00000-0 22891-3 0 9999 2 25544 51.6314 103.0937 0000833 227.8204 132.2714 15.49784909532819 0 CXO 1 25867U 99040B 25283.14864596 .00000910 00000-0 00000-0 0 9993 2 25867 51.8362 124.8724 8250177 310.5430 0.1880 0.37811187 16379